Tillbaka till svenska Fidonet
English   Information   Debug  
FILM   0/18
FNEWS_PUBLISH   4912
FN_SYSOP   42201
FN_SYSOP_OLD1   71952
FTP_FIDO   0/2
FTSC_PUBLIC   0/13972
FUNNY   0/4886
GENEALOGY.EUR   0/71
GET_INFO   105
GOLDED   0/408
HAM   800/16648
HOLYSMOKE   0/6791
HOT_SITES   0/1
HTMLEDIT   0/71
HUB203   466
HUB_100   264
HUB_400   39
HUMOR   0/29
IC   0/2851
INTERNET   0/424
INTERUSER   0/3
IP_CONNECT   719
JAMNNTPD   0/233
JAMTLAND   0/47
KATTY_KORNER   0/41
LAN   0/16
LINUX-USER   0/19
LINUXHELP   0/1155
LINUX   0/22300
LINUX_BBS   0/957
mail   18.68
mail_fore_ok   249
MENSA   0/341
MODERATOR   0/102
MONTE   0/992
MOSCOW_OKLAHOMA   0/1245
MUFFIN   0/783
MUSIC   0/321
N203_STAT   938
N203_SYSCHAT   313
NET203   321
NET204   69
NET_DEV   0/10
NORD.ADMIN   0/101
NORD.CHAT   0/2572
NORD.FIDONET   189
NORD.HARDWARE   0/28
NORD.KULTUR   0/114
NORD.PROG   0/32
NORD.SOFTWARE   0/88
NORD.TEKNIK   0/58
NORD   0/453
OCCULT_CHAT   0/93
OS2BBS   0/787
OS2DOSBBS   0/580
OS2HW   0/42
OS2INET   0/37
OS2LAN   0/134
OS2PROG   0/36
OS2REXX   0/113
OS2USER-L   207
OS2   0/4830
OSDEBATE   0/18996
PASCAL   0/490
PERL   0/457
PHP   0/45
POINTS   0/405
POLITICS   0/29554
POL_INC   0/14731
PSION   103
R20_ADMIN   1133
R20_AMATORRADIO   0/2
R20_BEST_OF_FIDONET   16
R20_CHAT   0/896
R20_DEPP   0/3
R20_DEV   400
R20_ECHO2   1821
R20_ECHOPRES   0/35
R20_ESTAT   0/719
R20_FIDONETPROG...
...RAM.MYPOINT
  0/2
R20_FIDONETPROGRAM   0/22
R20_FIDONET   0/248
R20_FILEFIND   0/24
R20_FILEFOUND   0/22
R20_HIFI   0/3
R20_INFO2   3713
R20_INTERNET   0/12940
R20_INTRESSE   0/60
R20_INTR_KOM   0/99
R20_KANDIDAT.CHAT   42
R20_KANDIDAT   28
R20_KOM_DEV   112
R20_KONTROLL   0/13360
R20_KORSET   0/18
R20_LOKALTRAFIK   0/24
R20_MODERATOR   0/1852
R20_NC   76
R20_NET200   245
R20_NETWORK.OTH...
...ERNETS
  0/13
R20_OPERATIVSYS...
...TEM.LINUX
  0/44
R20_PROGRAMVAROR   0/1
R20_REC2NEC   534
R20_SFOSM   0/341
R20_SF   0/108
R20_SPRAK.ENGLISH   0/1
R20_SQUISH   107
R20_TEST   2
R20_WORST_OF_FIDONET   20
RAR   0/9
RA_MULTI   106
RA_UTIL   0/162
REGCON.EUR   0/2068
REGCON   0/13
SCIENCE   0/1206
SF   0/239
SHAREWARE_SUPPORT   0/5146
SHAREWRE   0/14
SIMPSONS   0/169
STATS_OLD1   0/2539.065
STATS_OLD2   0/2530
STATS_OLD3   0/2395.095
STATS_OLD4   0/1692.25
SURVIVOR   0/495
SYSOPS_CORNER   0/3
SYSOP   0/84
TAGLINES   0/112
TEAMOS2   0/4530
TECH   0/2617
TEST.444   0/105
TRAPDOOR   0/19
TREK   0/755
TUB   0/290
UFO   0/40
UNIX   0/1316
USA_EURLINK   0/102
USR_MODEMS   0/1
VATICAN   0/2740
VIETNAM_VETS   0/14
VIRUS   0/378
VIRUS_INFO   0/201
VISUAL_BASIC   0/473
WHITEHOUSE   0/5187
WIN2000   0/101
WIN32   0/30
WIN95   0/4291
WIN95_OLD1   0/70272
WINDOWS   0/1517
WWB_SYSOP   0/419
WWB_TECH   0/810
ZCC-PUBLIC   0/1
ZEC   4

 
4DOS   0/134
ABORTION   0/7
ALASKA_CHAT   0/506
ALLFIX_FILE   0/1313
ALLFIX_FILE_OLD1   0/7997
ALT_DOS   0/152
AMATEUR_RADIO   0/1039
AMIGASALE   0/14
AMIGA   0/331
AMIGA_INT   0/1
AMIGA_PROG   0/20
AMIGA_SYSOP   0/26
ANIME   0/15
ARGUS   0/924
ASCII_ART   0/340
ASIAN_LINK   0/651
ASTRONOMY   0/417
AUDIO   0/92
AUTOMOBILE_RACING   0/105
BABYLON5   0/17862
BAG   135
BATPOWER   0/361
BBBS.ENGLISH   0/382
BBSLAW   0/109
BBS_ADS   0/5290
BBS_INTERNET   0/507
BIBLE   0/3563
BINKD   0/1119
BINKLEY   0/215
BLUEWAVE   0/2173
CABLE_MODEMS   0/25
CBM   0/46
CDRECORD   0/66
CDROM   0/20
CLASSIC_COMPUTER   0/378
COMICS   0/15
CONSPRCY   0/899
COOKING   41333
COOKING_OLD1   0/24719
COOKING_OLD2   0/40862
COOKING_OLD3   0/37489
COOKING_OLD4   0/35496
COOKING_OLD5   9370
C_ECHO   0/189
C_PLUSPLUS   0/31
DIRTY_DOZEN   0/201
DOORGAMES   0/2262
DOS_INTERNET   0/196
duplikat   6102
ECHOLIST   0/18295
EC_SUPPORT   0/318
ELECTRONICS   0/359
ELEKTRONIK.GER   1534
ENET.LINGUISTIC   0/13
ENET.POLITICS   0/4
ENET.SOFT   0/11701
ENET.SYSOP   34289
ENET.TALKS   0/32
ENGLISH_TUTOR   0/2000
EVOLUTION   0/1335
FDECHO   0/217
FDN_ANNOUNCE   0/7068
FIDONEWS   25048
FIDONEWS_OLD1   0/49742
FIDONEWS_OLD2   4657/35949
FIDONEWS_OLD3   0/30874
FIDONEWS_OLD4   0/37224
FIDO_SYSOP   12922
FIDO_UTIL   0/180
FILEFIND   0/209
FILEGATE   0/212
Möte HAM, 16648 texter
 lista första sista föregående nästa
Text 439, 763 rader
Skriven 2005-06-17 01:01:05 av Amsat List (1:323/120.0)
Ärende: 
========
SB KEPS @ AMSAT  $ORB05167.O
Orbital Elements  05167.OSCAR

HR AMSAT ORBITAL ELEMENTS FOR OSCAR SATELLITES
FROM WA5QGD FORT WORTH,TX June 16, 2005
Send SUBSCRIBE KEPS/UNSUBSCRIBE KEPS to majordomo@amsat.org only
BID: ORB05167.O
TO ALL RADIO AMATEURS BT

Satellite: AO-07
Catalog number: 07530
Epoch time:      05167.19425670
Element set:     437
Inclination:      101.6257 deg
RA of node:       213.4045 deg
Eccentricity:    0.0011866
Arg of perigee:   236.9358 deg
Mean anomaly:     123.0575 deg
Mean motion:   12.53570694 rev/day
Decay rate:       -2.8e-07 rev/day^2
Epoch rev:           39952
Checksum:              303

Satellite: AO-10
Catalog number: 14129
Epoch time:      05166.69312039
Element set:     187
Inclination:      027.3587 deg
RA of node:       027.5093 deg
Eccentricity:    0.6030455
Arg of perigee:   197.4472 deg
Mean anomaly:     126.2483 deg
Mean motion:   02.05867777 rev/day
Decay rate:      -3.27e-06 rev/day^2
Epoch rev:           16550
Checksum:              315

Satellite: UO-11
Catalog number: 14781
Epoch time:      05167.73558593
Element set:     806
Inclination:      098.2012 deg
RA of node:       165.2958 deg
Eccentricity:    0.0009124
Arg of perigee:   008.6608 deg
Mean anomaly:     351.4729 deg
Mean motion:   14.79253540 rev/day
Decay rate:        9.2e-07 rev/day^2
Epoch rev:           14173
Checksum:              312

Satellite: RS-10/11
Catalog number: 18129
Epoch time:      05167.73213475
Element set:     714
Inclination:      082.9266 deg
RA of node:       238.4654 deg
Eccentricity:    0.0012880
Arg of perigee:   034.5398 deg
Mean anomaly:     325.6597 deg
Mean motion:   13.72760605 rev/day
Decay rate:        6.2e-07 rev/day^2
Epoch rev:           90101
Checksum:              307

Satellite: FO-20
Catalog number: 20480
Epoch time:      05167.06033067
Element set:     930
Inclination:      099.0208 deg
RA of node:       341.4928 deg
Eccentricity:    0.0539765
Arg of perigee:   242.1225 deg
Mean anomaly:     112.4221 deg
Mean motion:   12.83347146 rev/day
Decay rate:       -1.0e-08 rev/day^2
Epoch rev:           71935
Checksum:              275

Satellite: RS-12/13
Catalog number: 21089
Epoch time:      05166.78626546
Element set:     940
Inclination:      082.9219 deg
RA of node:       271.9227 deg
Eccentricity:    0.0030932
Arg of perigee:   083.2155 deg
Mean anomaly:     277.2500 deg
Mean motion:   13.74450701 rev/day
Decay rate:      -1.09e-06 rev/day^2
Epoch rev:           72030
Checksum:              292

Satellite: RS-15
Catalog number: 23439
Epoch time:      05165.21154143
Element set:     868
Inclination:      064.8139 deg
RA of node:       112.3605 deg
Eccentricity:    0.0164218
Arg of perigee:   316.7488 deg
Mean anomaly:     042.0639 deg
Mean motion:   11.27551988 rev/day
Decay rate:       -3.9e-07 rev/day^2
Epoch rev:           43105
Checksum:              303

Satellite: FO-29
Catalog number: 24278
Epoch time:      05165.76851648
Element set:     980
Inclination:      098.5436 deg
RA of node:       215.6631 deg
Eccentricity:    0.0350552
Arg of perigee:   182.4484 deg
Mean anomaly:     177.4954 deg
Mean motion:   13.52912484 rev/day
Decay rate:       -8.0e-08 rev/day^2
Epoch rev:           43586
Checksum:              346

Satellite: SO-33
Catalog number: 25509
Epoch time:      05166.99669398
Element set:     393
Inclination:      031.4293 deg
RA of node:       039.3260 deg
Eccentricity:    0.0355368
Arg of perigee:   155.6343 deg
Mean anomaly:     206.1532 deg
Mean motion:   14.28017675 rev/day
Decay rate:       3.95e-06 rev/day^2
Epoch rev:           34665
Checksum:              332

Satellite: AO-40
Catalog number: 26609
Epoch time:      05166.53614517
Element set:     561
Inclination:      007.8153 deg
RA of node:       298.2846 deg
Eccentricity:    0.7929833
Arg of perigee:   049.5889 deg
Mean anomaly:     356.0727 deg
Mean motion:   01.25584903 rev/day
Decay rate:       -3.2e-07 rev/day^2
Epoch rev:            2124
Checksum:              329

Satellite: VO-52
Catalog number: 28650
Epoch time:      05167.26735686
Element set:      50
Inclination:      097.9089 deg
RA of node:       241.0052 deg
Eccentricity:    0.0028650
Arg of perigee:   110.0412 deg
Mean anomaly:     250.3831 deg
Mean motion:   14.80856214 rev/day
Decay rate:       6.45e-06 rev/day^2
Epoch rev:             622
Checksum:              277

/EX
SB KEPS @ AMSAT  $ORB05167.D
Orbital Elements  05167.MICROS

HR AMSAT ORBITAL ELEMENTS FOR THE MICROSATS
FROM WA5QGD FORT WORTH,TX June 16, 2005
Send SUBSCRIBE KEPS/UNSUBSCRIBE KEPS to majordomo@amsat.org only
BID: ORB05167.D
TO ALL RADIO AMATEURS BT

Satellite: UO-14
Catalog number: 20437
Epoch time:      05167.07502506
Element set:     803
Inclination:      098.1917 deg
RA of node:       176.8612 deg
Eccentricity:    0.0010442
Arg of perigee:   192.4109 deg
Mean anomaly:     167.6817 deg
Mean motion:   14.31415006 rev/day
Decay rate:       -7.9e-07 rev/day^2
Epoch rev:           80387
Checksum:              294

Satellite: AO-16
Catalog number: 20439
Epoch time:      05167.63890328
Element set:     488
Inclination:      098.2052 deg
RA of node:       192.8116 deg
Eccentricity:    0.0010369
Arg of perigee:   199.7473 deg
Mean anomaly:     160.3320 deg
Mean motion:   14.31679345 rev/day
Decay rate:        3.0e-07 rev/day^2
Epoch rev:           80401
Checksum:              301

Satellite: WO-18
Catalog number: 20441
Epoch time:      05167.22428110
Element set:     685
Inclination:      098.2149 deg
RA of node:       196.8091 deg
Eccentricity:    0.0010856
Arg of perigee:   201.4212 deg
Mean anomaly:     158.6521 deg
Mean motion:   14.31752438 rev/day
Decay rate:        3.6e-07 rev/day^2
Epoch rev:           80401
Checksum:              276

